Weather in Kayes

Mali     14°27′10″N   11°26′17″W
temp.,
°C
wind,
m/s
gust,
m/s
humid.,
%
clouds,
%
prec.,
mm/h
press.,
hPa
HPBL,
m
16 may, sun
sun1600:00+36w221198 0.0 100712
03:00+34w481360 0.0 1006154
06:00+32sw61015100 0.0 1008268
09:00+34wsw78205 0.0 1010746
12:00+39wsw441023 0.0 10091348
15:00+42ssw431014 0.0 10062427
18:00+41s431228 0.0 10061959
21:00+38ssw351521 0.0 1007100
17 may, mon
mon1700:00+35sse372199 0.2 1008160
03:00+36s342499 0.3 1006125
06:00+32sw61130100 0.3 1008364
09:00+34sw7725100 0.0 1010761
12:00+39sw6518100 0.0 10091198
15:00+42wsw431596 0.0 10062071
18:00+42nw12148 0.0 10053292
21:00+38sw34185 0.0 100785
18 may, tue
tue1800:00+36sw5102041 0.0 1007279
03:00+34wsw71322100 0.0 1006500
06:00+31sw91536100 0.0 1009673
09:00+32wsw91232100 0.0 1011747
12:00+37wsw8822100 0.0 10101163
15:00+41wsw441584 0.0 10071573
18:00+41w4414100 0.0 10061655
21:00+37sw2217100 0.0 100730
19 may, wed
wed1900:00+36sw361997 0.0 1008118
03:00+32wsw7143796 0.0 1008516
06:00+31w483873 0.0 1010442
09:00+33w562877 0.0 1013804
12:00+38w331998 0.0 10111339
15:00+41ssw21155 0.0 10082020
18:00+41ssw11155 0.0 10072421
21:00+38w11189 0.0 100812
20 may, thu
thu2000:00+36wsw332065 0.0 100850
03:00+34wsw392385 0.0 1007211
06:00+31wsw814355 0.0 1009609
09:00+32wsw9103271 0.0 1011792
12:00+38wsw7721100 0.0 10111403
15:00+41wsw5515100 0.0 10072087
18:00+41wsw4414100 0.0 10062205
21:00+37ssw3618100 0.0 1008107